Weather History for Sanford, NC

Change the Weather History Date:

Friday, August 22, 2014

  Actual Average (KRDU) Record (KRDU)
Temperature  
Mean Temperature 80 °F 78 °F  
Max Temperature 91 °F 88 °F 101 °F (1983)
Min Temperature 69 °F 68 °F 53 °F (2000)
Degree Days  
Heating Degree Days 0 0  
Month to date heating degree days 0  
Since 1 June heating degree days 4  
Since 1 July heating degree days 0  
Cooling Degree Days 15 13  
Month to date cooling degree days 309  
Year to date cooling degree days 1331  
Since 1 June cooling degree days 1122  
Growing Degree Days 30 (Base 50)    
Moisture  
Dew Point 72 °F    
Average Humidity 83    
Maximum Humidity 100    
Minimum Humidity 50    
Precipitation  
Precipitation 0.18 in 0.15 in 1.68 in (1947)
Month to date precipitation 2.92  
Year to date precipitation 28.20  
Sea Level Pressure  
Sea Level Pressure 30.00 in    
Wind  
Wind Speed 1 mph (NNW)    
Max Wind Speed 9 mph    
Max Gust Speed 32 mph    
Visibility 7 miles    
Events Rain    
T = Trace of Precipitation, MM = Missing Value Source: NWS Daily Summary

Daily Weather History Graph

Daily Weather History Graph

Search for Another Location

Airport:

Trip Planner

Search our weather history database for the weather conditions in past years. The results will help you decide how hot, cold, wet, or windy it might be!

Date:

Astronomy

Aug. 22, 2014 Rise Set
Actual Time 6:40 AM EDT 7:57 PM EDT
Civil Twilight 6:14 AM EDT 8:23 PM EDT
Nautical Twilight 5:42 AM EDT 8:55 PM EDT
Astronomical Twilight 5:09 AM EDT 9:28 PM EDT
Moon 4:04 AM EDT (8/22) 6:02 PM EDT (8/22)
Length of Visible Light 14h 09m
Length of Day
13h 16m
Waning Crescent, 8% of the Moon is Illuminated
Aug 22
Waning Crescent
Aug 25
New
Sep 2
First Quarter
Sep 8
Full
Sep 15
Last Quarter

Hourly Weather History & Observations

Time (EDT) Temp. Heat Index Dew Point Humidity Pressure Visibility Wind Dir Wind Speed Gust Speed Precip Events Conditions
12:15 AM 73.9 °F - 73.6 °F 99% 30.04 in 7.0 mi Calm Calm - N/A   Clear
12:35 AM 74.3 °F - 73.6 °F 98% 30.04 in 7.0 mi Calm Calm - N/A   Clear
12:55 AM 76.1 °F - 73.9 °F 93% 30.03 in 10.0 mi Calm Calm - N/A   Clear
1:15 AM 75.4 °F - 74.1 °F 96% 30.03 in 10.0 mi Calm Calm - N/A   Scattered Clouds
1:35 AM 77.2 °F - 73.9 °F 90% 30.03 in 10.0 mi Calm Calm - N/A   Clear
1:55 AM 77.0 °F - 73.9 °F 90% 30.03 in 10.0 mi West 4.6 mph - N/A   Scattered Clouds
2:15 AM 77.0 °F - 73.9 °F 90% 30.03 in 10.0 mi Calm Calm - N/A   Scattered Clouds
2:35 AM 75.6 °F - 73.4 °F 93% 30.02 in 10.0 mi Calm Calm - N/A   Scattered Clouds
3:15 AM 73.4 °F - 73.0 °F 99% 30.02 in 5.0 mi Calm Calm - N/A   Clear
3:35 AM 72.5 °F - 72.1 °F 99% 30.01 in 3.0 mi Calm Calm - N/A   Clear
3:55 AM 72.5 °F - 72.3 °F 99% 30.00 in 5.0 mi Calm Calm - N/A   Clear
4:15 AM 71.8 °F - 71.6 °F 99% 29.99 in 2.0 mi Calm Calm - N/A   Clear
4:35 AM 71.8 °F - 71.8 °F 100% 29.99 in 1.2 mi Calm Calm - N/A   Mist
4:55 AM 70.7 °F - 70.7 °F 100% 29.99 in 1.2 mi Calm Calm - N/A   Mist
5:15 AM 70.9 °F - 70.9 °F 100% 30.00 in 1.2 mi Calm Calm - N/A   Mist
5:35 AM 70.7 °F - 70.7 °F 100% 30.00 in 1.0 mi Calm Calm - N/A   Mist
5:55 AM 70.0 °F - 70.0 °F 100% 30.00 in 3.0 mi Calm Calm - N/A   Clear
6:15 AM 69.8 °F - 69.8 °F 100% 30.01 in 2.0 mi Calm Calm - N/A   Clear
6:35 AM 69.8 °F - 69.8 °F 100% 30.02 in 4.0 mi Calm Calm - N/A   Mostly Cloudy
6:55 AM 70.0 °F - 70.0 °F 100% 30.02 in 2.5 mi Calm Calm - N/A   Scattered Clouds
7:15 AM 70.0 °F - 70.0 °F 100% 30.02 in 3.0 mi Calm Calm - N/A   Clear
7:35 AM 71.2 °F - 71.2 °F 100% 30.03 in 4.0 mi Calm Calm - N/A   Clear
7:55 AM 72.9 °F - 72.5 °F 99% 30.04 in 10.0 mi Calm Calm - N/A   Clear
8:20 AM 75.4 °F - 73.4 °F 94% 30.04 in 10.0 mi Calm Calm - N/A   Clear
8:35 AM 76.3 °F - 73.4 °F 91% 30.04 in 10.0 mi Calm Calm - N/A   Clear
8:55 AM 77.2 °F - 73.6 °F 89% 30.04 in 10.0 mi Calm Calm - N/A   Clear
9:15 AM 78.8 °F - 74.1 °F 85% 30.03 in 10.0 mi Calm Calm - N/A   Clear
9:35 AM 80.8 °F 85.4 °F 73.0 °F 77% 30.03 in 10.0 mi Calm Calm - N/A   Clear
9:55 AM 82.4 °F 87.9 °F 73.0 °F 73% 30.04 in 10.0 mi Calm Calm - N/A   Clear
10:15 AM 83.8 °F 89.8 °F 72.7 °F 69% 30.03 in 10.0 mi SW 3.5 mph - N/A   Clear
10:35 AM 85.3 °F 92.2 °F 73.2 °F 67% 30.03 in 10.0 mi West 4.6 mph - N/A   Clear
10:55 AM 87.1 °F 94.1 °F 72.9 °F 62% 30.03 in 10.0 mi Calm Calm - N/A   Clear
11:15 AM 88.5 °F 94.4 °F 70.9 °F 56% 30.02 in 10.0 mi NW 6.9 mph - N/A   Clear
11:35 AM 88.5 °F 94.9 °F 71.8 °F 57% 30.02 in 10.0 mi NW 5.8 mph - N/A   Clear
11:55 AM 89.4 °F 95.3 °F 70.7 °F 54% 30.01 in 10.0 mi NW 8.1 mph - N/A   Clear
12:15 PM 89.2 °F 94.9 °F 70.9 °F 54% 30.01 in 10.0 mi NW 5.8 mph - N/A   Clear
12:35 PM 91.0 °F 97.1 °F 70.7 °F 51% 30.01 in 10.0 mi NW 8.1 mph - N/A   Clear
12:55 PM 90.5 °F 97.0 °F 71.4 °F 53% 30.01 in 10.0 mi NNW 5.8 mph - N/A   Clear
1:15 PM 91.2 °F 97.5 °F 70.9 °F 51% 30.01 in 10.0 mi North 9.2 mph - N/A   Clear
1:35 PM 91.2 °F 97.5 °F 70.7 °F 51% 30.00 in 10.0 mi North 5.8 mph - N/A   Scattered Clouds
1:55 PM 90.1 °F 95.8 °F 70.3 °F 52% 30.00 in 10.0 mi North 6.9 mph - N/A   Clear
2:15 PM 91.2 °F 97.5 °F 70.5 °F 51% 29.99 in 10.0 mi NW 4.6 mph - N/A   Clear
2:35 PM 91.4 °F 97.3 °F 70.3 °F 50% 29.99 in 10.0 mi West 3.5 mph - N/A   Clear
2:55 PM 91.0 °F 97.1 °F 70.9 °F 51% 29.99 in 10.0 mi North 3.5 mph - N/A   Mostly Cloudy
3:15 PM 91.0 °F 98.2 °F 72.0 °F 53% 29.97 in 10.0 mi NE 3.5 mph - N/A   Scattered Clouds
3:35 PM 91.8 °F 99.7 °F 72.5 °F 53% 29.96 in 10.0 mi NNE 6.9 mph - N/A   Mostly Cloudy
3:55 PM 91.2 °F 98.5 °F 72.0 °F 53% 29.96 in 10.0 mi NNE 3.5 mph - N/A   Mostly Cloudy
4:15 PM 91.2 °F 98.5 °F 71.8 °F 53% 29.96 in 10.0 mi Calm Calm - N/A   Scattered Clouds
4:35 PM 91.0 °F 98.7 °F 72.3 °F 54% 29.95 in 10.0 mi Calm Calm - N/A   Scattered Clouds
4:55 PM 90.5 °F 96.5 °F 70.9 °F 52% 29.95 in 10.0 mi NNW 4.6 mph - N/A   Mostly Cloudy
5:15 PM 78.1 °F - 70.2 °F 77% 29.96 in 2.5 mi SE 5.8 mph 32.2 mph 0.07 in Rain Light Rain
5:35 PM 77.5 °F - 74.5 °F 90% 29.96 in 10.0 mi ESE 3.5 mph - 0.07 in   Scattered Clouds
5:55 PM 78.1 °F - 72.7 °F 83% 29.99 in 7.0 mi NW 4.6 mph - 0.11 in Rain Heavy Rain
6:15 PM 78.3 °F - 75.4 °F 91% 29.96 in 10.0 mi South 4.6 mph - 0.07 in   Mostly Cloudy
6:35 PM 78.1 °F - 74.7 °F 89% 29.96 in 10.0 mi SSE 3.5 mph - 0.07 in   Scattered Clouds
6:55 PM 78.8 °F - 74.8 °F 88% 29.96 in 10.0 mi Calm Calm - 0.07 in   Clear
7:15 PM 78.8 °F - 74.7 °F 87% 29.95 in 10.0 mi Calm Calm - N/A   Clear
7:55 PM 75.9 °F - 75.2 °F 98% 29.95 in 7.0 mi Calm Calm - N/A   Clear
8:15 PM 75.2 °F - 74.5 °F 98% 29.95 in 10.0 mi Calm Calm - N/A   Clear
8:35 PM 74.7 °F - 74.5 °F 99% 29.95 in 7.0 mi Calm Calm - N/A   Clear
8:55 PM 74.5 °F - 74.3 °F 99% 29.95 in 5.0 mi Calm Calm - N/A   Clear
9:15 PM 73.9 °F - 73.8 °F 99% 29.95 in 1.2 mi Calm Calm - N/A   Mist
9:55 PM 74.3 °F - 74.1 °F 99% 29.96 in 0.8 mi Calm Calm - N/A   Mist
10:15 PM 73.9 °F - 73.9 °F 100% 29.96 in 3.0 mi Calm Calm - N/A   Clear
10:35 PM 73.0 °F - 73.0 °F 100% 29.97 in 0.8 mi Calm Calm - N/A   Mist
10:55 PM 73.0 °F - 73.0 °F 100% 29.96 in 2.5 mi Calm Calm - N/A   Clear
11:15 PM 72.9 °F - 72.9 °F 100% 29.96 in 3.0 mi Calm Calm - N/A   Clear
11:35 PM 73.6 °F - 73.6 °F 100% 29.97 in 5.0 mi Calm Calm - N/A   Clear
11:55 PM 73.6 °F - 73.6 °F 100% 29.97 in 5.0 mi Calm Calm - N/A   Clear